{"data":{"norad_id":59205,"epoch":"2026-05-25T01:37:27.958944Z","epoch_age_seconds":59296,"freshness":"FRESH","line1":"1 59205U 24046E   26145.06768471 -.00000229  00000+0  43786-5 0  9990","line2":"2 59205  53.1595 160.5493 0001054  73.6964 286.4152 15.30196706124748","mean_motion":15.30196706,"eccentricity":0.0001054,"inclination_deg":53.1595,"raan_deg":160.5493,"arg_perigee_deg":73.6964,"mean_anomaly_deg":286.4152,"bstar":4.3786e-6,"rev_number":12474,"period_min":94.105548283673,"perigee_km":474.50256038246,"apogee_km":475.94724907198,"semimajor_km":6853.3619047272,"source":"CELESTRAK","updated_at":"2026-05-25T13:38:18.864624Z"}}